Altus AFB, OK

11:34 AM CDT on August 23, 2017 (GMT -0500)
Altus Air Force Base

Weather History for KLTS - April, 2013

Change the Weather History Date:

Wednesday, April 10, 2013

  Actual Average Record
Temperature  
Mean Temperature 38 °F -  
Max Temperature 47 °F 70 °F 90 °F (2014)
Min Temperature 28 °F 45 °F 28 °F (2013)
Degree Days  
Heating Degree Days 27    
Moisture  
Dew Point 29 °F    
Average Humidity 82    
Maximum Humidity 100    
Minimum Humidity 44    
Precipitation  
Precipitation 0.61 in - - ()
Sea Level Pressure  
Sea Level Pressure 29.99 in    
Wind  
Wind Speed 22 mph (NNW)    
Max Wind Speed 38 mph    
Max Gust Speed 47 mph    
Visibility 7 miles    
Events Rain , Thunderstorm    
Averages and records for this station are not official NWS values.
T = Trace of Precipitation, MM = Missing Value Source: NWS Daily Summary

Daily Weather History Graph

Daily Weather History Graph

Search for Another Location

Airport or City:

Trip Planner

Search our weather history database for the weather conditions in past years. The results will help you decide how hot, cold, wet, or windy it might be!

Date:

Astronomy

Apr. 10, 2013 Rise Set
Actual Time 7:11 AM CDT 8:05 PM CDT
Civil Twilight 6:45 AM CDT 8:31 PM CDT
Nautical Twilight 6:15 AM CDT 9:01 PM CDT
Astronomical Twilight 5:44 AM CDT 9:33 PM CDT
Moon 7:09 AM CDT (4/10) 8:40 PM CDT (4/10)
Length of Visible Light 13h 45m
Length of Day
12h 53m
New Moon, 0% of the Moon is Illuminated
Apr 10
New Moon
Apr 18
First Quarter
Apr 25
Full
May 2
Last Quarter
May 9
New

Hourly Weather History & Observations

Time (CDT) Temp. Windchill Dew Point Humidity Pressure Visibility Wind Dir Wind Speed Gust Speed Precip Events Conditions
12:02 AM 33.8 °F 21.0 °F 32.0 °F 93% 29.89 in 6.0 mi North 25.3 mph 39.1 mph N/A Rain , Thunderstorm Light Thunderstorms and Rain
12:19 AM 32.0 °F 18.9 °F 32.0 °F 100% 29.88 in 6.0 mi North 24.2 mph 34.5 mph N/A Rain , Thunderstorm Light Thunderstorms and Rain
12:20 AM 32.0 °F 18.9 °F 32.0 °F 100% 29.89 in 7.0 mi North 24.2 mph 34.5 mph N/A Rain , Thunderstorm Light Thunderstorms and Rain
12:29 AM 32.0 °F 18.6 °F 32.0 °F 100% 29.90 in 10.0 mi North 25.3 mph 31.1 mph N/A Rain , Thunderstorm Light Thunderstorms and Rain
12:34 AM 32.0 °F 17.9 °F 32.0 °F 100% 29.90 in 10.0 mi NNW 28.8 mph - N/A Rain , Thunderstorm Light Thunderstorms and Rain
12:39 AM 32.0 °F 17.4 °F 32.0 °F 100% 29.88 in 10.0 mi NNW 31.1 mph 39.1 mph N/A Rain , Thunderstorm Light Thunderstorms and Rain
12:45 AM 32.0 °F 18.4 °F 32.0 °F 100% 29.93 in 10.0 mi NNW 26.5 mph 40.3 mph N/A Rain , Thunderstorm Light Thunderstorms and Rain
12:54 AM 32.0 °F 18.4 °F 32.0 °F 100% 29.96 in 8.0 mi NNW 26.5 mph 28.8 mph N/A Rain , Thunderstorm Light Thunderstorms and Rain
12:59 AM 32.0 °F 16.7 °F 32.0 °F 100% 29.88 in 2.5 mi North 34.5 mph 40.3 mph 0.21 in Rain , Thunderstorm Heavy Thunderstorms and Rain
1:00 AM 32.0 °F 17.0 °F 32.0 °F 100% 29.89 in 3.0 mi NNW 33.4 mph 40.3 mph N/A Rain , Thunderstorm Light Freezing Rain
1:05 AM 32.0 °F 17.4 °F 32.0 °F 100% 29.91 in 3.0 mi NNW 31.1 mph 40.3 mph N/A Rain , Thunderstorm Thunderstorms and Rain
1:09 AM 32.0 °F 16.2 °F 32.0 °F 100% 29.84 in 4.0 mi North 38.0 mph 42.6 mph N/A Rain , Thunderstorm Thunderstorms and Rain
1:12 AM 32.0 °F 16.3 °F 32.0 °F 100% 29.84 in 6.0 mi North 36.8 mph 47.2 mph N/A Rain , Thunderstorm Light Thunderstorms and Rain
1:21 AM 32.0 °F 21.2 °F 32.0 °F 100% 30.09 in 7.0 mi SW 16.1 mph 47.2 mph N/A Rain , Thunderstorm Light Thunderstorms and Rain
1:29 AM 32.0 °F 19.8 °F 32.0 °F 100% 29.98 in 5.0 mi NNW 20.7 mph 26.5 mph N/A Rain , Thunderstorm Thunderstorms and Rain
1:58 AM 32.0 °F 19.5 °F 32.0 °F 100% 29.94 in 10.0 mi NNW 21.9 mph 26.5 mph 0.18 in Rain , Thunderstorm Light Thunderstorms and Rain
2:58 AM 32.2 °F 19.1 °F 29.8 °F 91% 29.91 in 3.0 mi North 24.2 mph 28.8 mph 0.05 in Rain , Thunderstorm Light Thunderstorms and Rain
3:40 AM 32.0 °F 19.2 °F 28.4 °F 87% 29.93 in 3.0 mi NNW 23.0 mph 29.9 mph N/A Rain Light Rain
3:58 AM 31.3 °F 19.2 °F 28.4 °F 89% 29.97 in 3.0 mi North 19.6 mph 28.8 mph 0.05 in   Light Freezing Rain
4:11 AM 32.0 °F 20.1 °F 28.4 °F 87% 29.95 in 2.0 mi NNW 19.6 mph 26.5 mph N/A Rain Light Rain
4:29 AM 32.0 °F 18.9 °F 28.4 °F 87% 29.97 in 1.5 mi NNW 24.2 mph 31.1 mph N/A Rain Rain
4:38 AM 32.0 °F 20.5 °F 28.4 °F 87% 29.99 in 2.0 mi North 18.4 mph 31.1 mph N/A Rain , Thunderstorm Light Freezing Rain
4:58 AM 31.1 °F 19.7 °F 28.6 °F 90% 29.97 in 2.0 mi NNW 17.3 mph - 0.06 in Rain Light Freezing Rain
5:26 AM 30.2 °F 18.9 °F 26.6 °F 86% 29.98 in 1.5 mi NNW 16.1 mph 24.2 mph N/A   Ice Pellets
5:58 AM 30.6 °F 19.4 °F 27.7 °F 89% 30.04 in 3.0 mi NNW 16.1 mph - 0.02 in   Light Freezing Drizzle
6:58 AM 30.2 °F 23.4 °F 26.6 °F 86% 30.02 in 4.0 mi North 6.9 mph - 0.03 in   Light Freezing Rain
7:46 AM 28.4 °F 21.2 °F 24.8 °F 86% 30.00 in 3.0 mi NNW 6.9 mph - N/A   Ice Pellets
7:58 AM 28.9 °F 17.7 °F 25.5 °F 87% 30.08 in 3.0 mi NNW 15.0 mph - 0.01 in   Ice Pellets
8:13 AM 28.4 °F 16.2 °F 24.8 °F 86% 30.05 in 5.0 mi NNW 17.3 mph - N/A   Light Freezing Drizzle
8:58 AM 28.8 °F 17.5 °F 24.8 °F 85% 30.09 in 10.0 mi NNW 15.0 mph - 0.00 in   Overcast
9:03 AM 28.4 °F 16.2 °F 24.8 °F 86% 30.05 in 6.0 mi NNW 17.3 mph - N/A Rain Light Freezing Rain
9:20 AM 28.4 °F 16.6 °F 24.8 °F 86% 30.05 in 10.0 mi NNW 16.1 mph 24.2 mph N/A   Overcast
9:58 AM 28.4 °F 16.2 °F 24.8 °F 86% 30.10 in 10.0 mi NNW 17.3 mph 25.3 mph N/A   Overcast
10:58 AM 30.9 °F 19.1 °F 26.1 °F 82% 30.11 in 10.0 mi NNW 18.4 mph 27.6 mph N/A   Overcast
11:03 AM 32.0 °F 21.2 °F 26.6 °F 80% 30.09 in 10.0 mi NNW 16.1 mph 26.5 mph N/A   Overcast
11:13 AM 32.0 °F 21.2 °F 26.6 °F 80% 30.09 in 10.0 mi NNW 16.1 mph 26.5 mph N/A   Overcast
11:56 AM 32.0 °F 19.8 °F 28.4 °F 87% 30.07 in 10.0 mi North 20.7 mph 25.3 mph N/A   Overcast
11:59 AM 33.3 °F 21.2 °F 28.0 °F 81% 30.10 in 10.0 mi North 21.9 mph 25.3 mph N/A   Overcast
12:45 PM 35.6 °F 25.2 °F 30.2 °F 81% 30.06 in 10.0 mi NNW 18.4 mph 27.6 mph N/A   Mostly Cloudy
12:58 PM 36.3 °F 25.8 °F 28.8 °F 74% 30.09 in 10.0 mi NNW 19.6 mph 26.5 mph N/A   Mostly Cloudy
1:18 PM 37.4 °F 26.6 °F 28.4 °F 70% 30.06 in 10.0 mi NNW 21.9 mph 25.3 mph N/A   Mostly Cloudy
1:38 PM 39.2 °F 28.5 °F 32.0 °F 75% 30.05 in 10.0 mi NNW 24.2 mph - N/A   Mostly Cloudy
1:53 PM 39.2 °F 29.8 °F 30.2 °F 70% 30.05 in 10.0 mi NNW 18.4 mph 25.3 mph N/A   Scattered Clouds
1:58 PM 39.4 °F 29.5 °F 29.8 °F 69% 30.08 in 10.0 mi NNW 20.7 mph 25.3 mph N/A   Scattered Clouds
2:08 PM 39.2 °F 29.8 °F 30.2 °F 70% 30.05 in 10.0 mi North 18.4 mph 25.3 mph N/A   Mostly Cloudy
2:13 PM 39.2 °F 29.6 °F 30.2 °F 70% 30.05 in 10.0 mi NNW 19.6 mph 25.3 mph N/A   Scattered Clouds
2:33 PM 41.0 °F 31.9 °F 28.4 °F 61% 30.03 in - NW 19.6 mph - N/A   Mostly Cloudy
2:38 PM 41.0 °F 31.9 °F 30.2 °F 65% 30.02 in 10.0 mi NNW 19.6 mph - N/A   Scattered Clouds
2:58 PM 41.7 °F 32.9 °F 28.9 °F 61% 30.04 in 10.0 mi NNW 19.6 mph 27.6 mph N/A   Scattered Clouds
3:58 PM 44.2 °F 36.4 °F 28.9 °F 55% 30.00 in 10.0 mi NW 18.4 mph - N/A   Clear
4:58 PM 45.7 °F 39.5 °F 27.7 °F 49% 29.98 in 10.0 mi NNW 13.8 mph 25.3 mph N/A   Clear
5:58 PM 47.7 °F - 28.6 °F 48% 29.95 in 10.0 mi NNW 16.1 mph 20.7 mph N/A   Clear
6:03 PM 48.2 °F - 28.4 °F 46% 29.93 in 10.0 mi NW 18.4 mph 21.9 mph N/A   Clear
6:58 PM 47.3 °F - 26.2 °F 44% 29.97 in 10.0 mi NNW 16.1 mph - N/A   Clear
7:58 PM 44.4 °F 40.5 °F 27.5 °F 52% 29.99 in 10.0 mi NNW 6.9 mph - N/A   Clear
8:58 PM 40.8 °F 38.8 °F 27.5 °F 59% 30.01 in 10.0 mi North 3.5 mph - N/A   Clear
9:58 PM 39.0 °F 36.8 °F 28.8 °F 67% 30.03 in 10.0 mi WNW 3.5 mph - N/A   Clear
10:58 PM 36.9 °F 32.2 °F 29.3 °F 74% 30.04 in 10.0 mi NW 5.8 mph - N/A   Clear
11:58 PM 37.8 °F 30.7 °F 28.2 °F 68% 30.01 in 10.0 mi NNW 10.4 mph - N/A   Clear